Location: ??????????
(44.2167°N, 135.5333°E)
Time: 15:08:20
(UTC+00:00)

CZ-2C R/B - Pass Details

Date: 15 June 2025
Orbit: 783 x 866 km, 98.4° (Epoch: 15 July)

Event Time Altitude Azimuth Distance (km) Brightness Sun altitude
Exits shadow 15:27:38 27° 127° (SE) 1,477 3.7 -22.1°
Maximum altitude 15:30:05 47° 70° (ENE) 1,049 3.3 -22.1°
Drops below altitude 10° 15:35:10 10° 357° (N) 2,412 6.2 -21.9°
Sets 15:37:36 0° 352° (N) 3,361 7.1 -21.9°
